Pittsfield, MA

9:00 PM EDT on March 27, 2017 (GMT -0400)
Pittsfield Municipal

Weather History for KPSF - April, 2014

Change the Weather History Date:

Monday, April 7, 2014

  Actual Average Record
Temperature  
Mean Temperature 41 °F 41 °F  
Max Temperature 54 °F 51 °F 76 °F (1942)
Min Temperature 27 °F 30 °F 14 °F (1943)
Degree Days  
Heating Degree Days 24 24  
Month to date heating degree days 177 180  
Since 1 July heating degree days 6960 6587  
Cooling Degree Days 0 0  
Month to date cooling degree days 0 0  
Year to date cooling degree days 0 0  
Moisture  
Dew Point 24 °F    
Average Humidity 56    
Maximum Humidity 86    
Minimum Humidity 26    
Precipitation  
Precipitation 0.02 in 0.15 in 1.06 in (1953)
Month to date precipitation 0.13 1.13  
Year to date precipitation 9.64 10.10  
Sea Level Pressure  
Sea Level Pressure 30.03 in    
Wind  
Wind Speed 7 mph (ESE)    
Max Wind Speed 23 mph    
Max Gust Speed 31 mph    
Visibility 9 miles    
Events Rain    
T = Trace of Precipitation, MM = Missing Value Source: NWS Daily Summary

Daily Weather History Graph

Daily Weather History Graph

Search for Another Location

Airport or City:

Trip Planner

Search our weather history database for the weather conditions in past years. The results will help you decide how hot, cold, wet, or windy it might be!

Date:

Astronomy

Apr. 07, 2014 Rise Set
Actual Time 6:25 AM EDT 7:25 PM EDT
Civil Twilight 5:56 AM EDT 7:54 PM EDT
Nautical Twilight 5:22 AM EDT 8:28 PM EDT
Astronomical Twilight 4:46 AM EDT 9:04 PM EDT
Moon 12:15 PM EDT (4/7) 2:04 AM EDT (4/7)
Length of Visible Light 13h 57m
Length of Day
13h 00m
First Quarter, 53% of the Moon is Illuminated
Apr 7
First Quarter
Apr 15
Full
Apr 22
Last Quarter
Apr 29
New
May 6
First Quarter

Hourly Weather History & Observations

Time (EDT) Temp. Windchill Dew Point Humidity Pressure Visibility Wind Dir Wind Speed Gust Speed Precip Events Conditions
1:54 AM 30.0 °F - 25.0 °F 82% 30.17 in 10.0 mi Calm Calm - N/A   Clear
2:54 AM 28.9 °F 25.2 °F 24.1 °F 82% 30.17 in 10.0 mi NNW 3.5 mph - N/A   Clear
3:54 AM 28.9 °F - 25.0 °F 85% 30.15 in 10.0 mi Calm Calm - N/A   Clear
4:54 AM 28.9 °F - 24.1 °F 82% 30.14 in 10.0 mi Calm Calm - N/A   Clear
5:54 AM 28.0 °F - 24.1 °F 85% 30.16 in 10.0 mi Calm Calm - N/A   Clear
6:54 AM 27.0 °F - 23.0 °F 85% 30.16 in 10.0 mi Calm Calm - N/A   Clear
7:54 AM 34.0 °F - 26.1 °F 73% 30.18 in 10.0 mi Calm Calm - N/A   Clear
8:54 AM 37.9 °F - 25.0 °F 60% 30.17 in 10.0 mi Calm Calm - N/A   Clear
9:54 AM 44.1 °F - 26.1 °F 49% 30.16 in 10.0 mi Calm Calm - N/A   Clear
10:54 AM 53.1 °F - 19.9 °F 27% 30.14 in 10.0 mi South 6.9 mph 17.3 mph N/A   Clear
11:54 AM 53.1 °F - 19.9 °F 27% 30.14 in 10.0 mi SE 16.1 mph 21.9 mph N/A   Clear
12:54 PM 53.1 °F - 19.0 °F 26% 30.11 in 10.0 mi SE 12.7 mph 25.3 mph N/A   Clear
1:54 PM 53.1 °F - 21.0 °F 29% 30.08 in 10.0 mi SE 16.1 mph 21.9 mph N/A   Clear
2:54 PM 50.0 °F - 19.0 °F 29% 30.06 in 10.0 mi SSE 19.6 mph 25.3 mph N/A   Overcast
4:54 PM 48.9 °F - 16.0 °F 27% 30.03 in 10.0 mi SE 8.1 mph - N/A   Overcast
5:54 PM 48.0 °F - 16.0 °F 28% 29.99 in 10.0 mi ENE 8.1 mph - N/A   Overcast
6:54 PM 46.9 °F - 19.0 °F 33% 29.97 in 10.0 mi Variable 4.6 mph - N/A   Overcast
7:54 PM 46.9 °F - 19.9 °F 34% 29.93 in 10.0 mi SE 15.0 mph 23.0 mph N/A   Overcast
8:54 PM 44.1 °F 37.1 °F 18.0 °F 35% 29.91 in 10.0 mi SE 15.0 mph 23.0 mph 0.00 in   Overcast
9:28 PM 41.0 °F 35.2 °F 26.1 °F 55% 29.90 in 9.0 mi ESE 9.2 mph - 0.00 in Rain Light Rain
9:54 PM 37.9 °F 32.7 °F 32.0 °F 79% 29.88 in 4.0 mi East 6.9 mph - 0.01 in Rain Light Rain
10:31 PM 37.0 °F 31.6 °F 34.0 °F 89% 29.84 in 7.0 mi ENE 6.9 mph - 0.00 in Rain Light Rain
10:54 PM 37.9 °F 32.7 °F 35.1 °F 89% 29.80 in 6.0 mi East 6.9 mph - 0.00 in   Overcast
11:25 PM 39.9 °F 33.4 °F 37.0 °F 89% 29.78 in 9.0 mi ESE 10.4 mph 17.3 mph 0.00 in   Overcast
11:54 PM 41.0 °F 34.7 °F 37.9 °F 89% 29.73 in 6.0 mi East 10.4 mph 18.4 mph 0.00 in   Overcast